This is the latest recevied weather packets stored in our database for station/object BRIVER. If no packets are shown the sender has not sent any weather packets the latest 10 day(s).
| Time | Temp. | Humidity | Pressure | Rain* | Wind** | Luminosity | Snow |
|---|---|---|---|---|---|---|---|
| 1778109927 | 15.56° C | 68% | 1017.9 hPa | 0 mm | - | - | - |
| 1778109748 | 15.56° C | 69% | 1017.9 hPa | 0 mm | - | - | - |
| 1778109627 | 15.56° C | 67% | 1017.9 hPa | 0 mm | - | - | - |
| 1778109327 | 15.56° C | 67% | 1018 hPa | 0 mm | - | - | - |
| 1778109208 | 16.11° C | 65% | 1018.1 hPa | 0 mm | - | - | - |
| 1778109027 | 16.11° C | 68% | 1018.1 hPa | 0 mm | - | - | - |
| 1778108727 | 16.11° C | 67% | 1018.1 hPa | 0 mm | - | - | - |
| 1778108668 | 16.67° C | 68% | 1018 hPa | 0 mm | - | - | - |
| 1778108427 | 16.11° C | 69% | 1018.1 hPa | 0 mm | - | - | - |
| 1778108127 | 15.56° C | 67% | 1018.1 hPa | 0 mm | - | - | - |
| 1778107827 | 16.11° C | 66% | 1018.1 hPa | 0 mm | - | - | - |
| 1778107588 | 15.56° C | 67% | 1018.1 hPa | 0 mm | - | - | - |
| 1778107527 | 15.56° C | 66% | 1018.1 hPa | 0 mm | - | - | - |
| 1778107227 | 15.56° C | 69% | 1018.2 hPa | 0 mm | - | - | - |
| 1778107048 | 15.56° C | 68% | 1018.2 hPa | 0 mm | - | - | - |
| 1778106927 | 15.56° C | 65% | 1018.2 hPa | 0 mm | - | - | - |
| 1778106627 | 15.56° C | 67% | 1018.3 hPa | 0 mm | - | - | - |
| 1778106509 | 15.56° C | 67% | 1018.2 hPa | 0 mm | - | - | - |
| 1778106327 | 15.56° C | 63% | 1018.3 hPa | 0 mm | - | - | - |
| 1778106027 | 15.56° C | 66% | 1018.3 hPa | 0 mm | - | - | - |
| 1778105970 | 15.56° C | 67% | 1018.2 hPa | 0 mm | - | - | - |
| 1778105727 | 15.56° C | 68% | 1018.3 hPa | 0 mm | - | - | - |
| 1778105427 | 15.56° C | 70% | 1018.2 hPa | 0 mm | - | - | - |
| 1778105127 | 15.56° C | 72% | 1018.4 hPa | 0 mm | - | - | - |
| 1778104888 | 15.56° C | 72% | 1018.2 hPa | 0 mm | - | - | - |
* Rain latest hour (hover to see other rain measurements)
** Current wind speed in m/s (hover to see current wind gust speed)